This is the latest recevied weather packets stored in our database for station/object KE6LRO. If no packets are shown the sender has not sent any weather packets the latest 10 day(s).
| Time | Temp. | Humidity | Pressure | Rain* | Wind** | Luminosity | Snow |
|---|---|---|---|---|---|---|---|
| 1778165722 | 10.56° C | 83% | 1018.8 hPa | 0 mm | - | 133 W/m² | - |
| 1778165421 | 10° C | 81% | 1018.9 hPa | 0 mm | - | 158 W/m² | - |
| 1778165117 | 10° C | 85% | 1018.9 hPa | 0 mm | - | 136 W/m² | - |
| 1778164814 | 10.56° C | 83% | 1018.9 hPa | 0 mm | - | 132 W/m² | - |
| 1778164512 | 10° C | 83% | 1018.8 hPa | 0 mm | - | 139 W/m² | - |
| 1778164209 | 8.89° C | 86% | 1018.7 hPa | 0 mm | - | 138 W/m² | - |
| 1778163904 | 7.78° C | 87% | 1018.6 hPa | 0 mm | - | 154 W/m² | - |
| 1778163601 | 7.22° C | 91% | 1018.6 hPa | 0 mm | - | 111 W/m² | - |
| 1778163297 | 6.67° C | 92% | 1018.6 hPa | 0 mm | - | 101 W/m² | - |
| 1778162994 | 6.11° C | 93% | 1018.6 hPa | 0 mm | - | 83 W/m² | - |
| 1778162690 | 5.56° C | 93% | 1018.6 hPa | 0 mm | - | 66 W/m² | - |
| 1778162388 | 5.56° C | 94% | 1018.5 hPa | 0 mm | - | 53 W/m² | - |
| 1778162085 | 5° C | 94% | 1018.4 hPa | 0 mm | - | 42 W/m² | - |
| 1778161782 | 4.44° C | 95% | 1018.4 hPa | 0 mm | - | 34 W/m² | - |
| 1778161478 | 4.44° C | 95% | 1018.5 hPa | 0 mm | - | 30 W/m² | - |
| 1778161174 | 4.44° C | 95% | 1018.5 hPa | 0 mm | - | 29 W/m² | - |
| 1778160871 | 4.44° C | 96% | 1018.3 hPa | 0 mm | - | 29 W/m² | - |
| 1778160570 | 4.44° C | 96% | 1018.3 hPa | 0 mm | - | 28 W/m² | - |
| 1778160265 | 3.89° C | 97% | 1018.2 hPa | 0 mm | - | 28 W/m² | - |
| 1778159962 | 3.89° C | 97% | 1018.3 hPa | 0 mm | - | 27 W/m² | - |
| 1778159659 | 3.33° C | 97% | 1018.4 hPa | 0 mm | - | 24 W/m² | - |
| 1778159356 | 3.33° C | 97% | 1018.5 hPa | 0 mm | - | 21 W/m² | - |
| 1778159053 | 3.33° C | 97% | 1018.2 hPa | 0 mm | - | 19 W/m² | - |
| 1778158752 | 3.33° C | 97% | 1018.4 hPa | 0 mm | - | 17 W/m² | - |
| 1778158449 | 3.33° C | 97% | 1018.5 hPa | 0 mm | - | 15 W/m² | - |
* Rain latest hour (hover to see other rain measurements)
** Current wind speed in m/s (hover to see current wind gust speed)